Location: Sternwarte Stuttgart
(48.7670°N, 9.1830°E)
Time: 03:55:42
(UTC+02:00)

Daily predictions for brighter satellites

Satellite Brightness Start Highest point End
(mag) Time Altitude Azimuth Time Altitude Azimuth Time Altitude Azimuth
Cosmos 1707 3.3 00:03:10 36° SE 00:04:05 43° E 00:07:49 10° NNE
Cosmos 374 Rocket 4.5 00:04:46 11° SW 00:09:46 83° SE 00:13:46 10° NE
Meteor 2-5 Rocket 3.8 00:10:07 30° S 00:13:06 67° E 00:18:49 10° NNE
USA 238 DEB 3.7 00:06:55 10° SSW 00:14:00 77° SE 00:21:05 10° NE
USA 238 3.7 00:07:04 10° SSW 00:14:06 77° SE 00:21:11 10° NE
Cosmos 1932 4.5 00:11:15 10° SW 00:17:27 82° NW 00:23:46 10° NE
Cosmos 2026 Rocket 4.1 00:15:14 30° SSE 00:18:10 58° E 00:24:07 10° NNE
Cosmos 614 Rocket 3.9 00:16:41 30° SSW 00:19:20 79° ESE 00:24:35 10° NNE
Cosmos 1607 3.9 00:17:18 21° SSW 00:21:33 70° ESE 00:27:44 10° NE
H-2A R/B 3.1 00:18:29 10° NNE 00:22:02 34° E 00:22:32 33° ESE
Cosmos 1818 3.8 00:17:18 10° NW 00:22:48 67° NE 00:26:02 25° SE
Meteor 2-1 Rocket 4.4 00:17:57 10° N 00:23:54 71° ENE 00:26:46 31° SSE
Cosmos 1766 Rocket 4.4 00:23:05 31° SE 00:24:17 38° E 00:28:26 10° NNE
Lacrosse 4 Rocket 3.4 00:21:17 10° WSW 00:24:48 27° NW 00:28:22 10° NNE
Cosmos 1627 Rocket 4.4 00:21:55 30° S 00:25:02 72° E 00:31:10 10° NNE
Landsat 5 4.1 00:23:44 31° ESE 00:25:03 43° ENE 00:28:56 10° N
ISS -2.6 00:23:01 10° W 00:26:14 54° N 00:29:28 10° ENE
Cosmos 2369 4.1 00:23:18 10° NNW 00:28:54 57° ENE 00:32:13 24° SE
Cosmos 2221 2.4 00:24:50 10° N 00:29:11 89° ENE 00:30:32 44° S
Cosmos 1763 Rocket 4.5 00:26:34 10° NNW 00:31:38 41° ENE 00:34:47 21° ESE
Cosmos 1733 3.4 00:27:51 10° NNW 00:31:42 61° W 00:32:40 44° SSW
Cosmos 1076 Rocket 3.9 00:30:46 39° SE 00:31:46 47° E 00:35:52 10° NNE
Terra 3.8 00:30:29 12° SW 00:33:15 19° W 00:36:39 10° NW
Cosmos 1378 4.1 00:32:47 31° ESE 00:33:15 33° E 00:36:41 10° NNE
NOSS 3-3 (A) 4.4 00:29:14 10° NW 00:36:36 83° SW 00:41:29 26° SSE
NOSS 3-3 (C) 4.4 00:29:21 10° NW 00:36:43 84° SW 00:41:38 25° SE
COSMOS 2487 2.5 00:36:07 50° SW 00:36:57 79° WNW 00:40:35 10° NNE
Lacrosse 5 2.8 00:33:58 10° NW 00:38:53 47° NNE 00:43:46 10° E
Meteor 1-16 Rocket 4.3 00:35:48 10° NNW 00:41:23 75° W 00:43:59 34° S
CENTAUR R/B 4.4 00:42:04 11° ESE 00:43:27 12° ESE 00:45:35 10° E
NOSS 3-2 (C) 3.8 00:45:55 33° S 00:48:19 48° ESE 00:54:44 10° NE
Cosmos 2228 Rocket 3.2 00:44:56 10° N 00:49:19 63° ENE 00:50:41 41° SE
Cosmos 1980 Rocket 4.0 00:45:14 10° NNW 00:50:00 27° NE 00:54:45 10° ESE
Cosmos 2278 3.6 00:45:47 10° NNW 00:51:29 89° ENE 00:54:06 34° SSE
Okean 3 Rocket 4.3 00:51:42 29° SW 00:53:37 47° WNW 00:57:55 10° N
COSMOS 2406 4.0 00:51:39 12° SW 00:56:48 49° NW 01:02:23 10° NNE
Cosmos 1470 4.4 00:54:40 10° NW 00:57:50 24° W 00:58:55 21° WSW
Cosmos 1553 Rocket 4.0 00:53:55 10° N 01:00:17 85° W 01:03:23 33° S
Cosmos 1867 4.3 01:00:11 33° SE 01:01:23 37° ESE 01:06:22 10° NE
Genesis I 3.6 00:58:07 10° NW 01:02:05 59° NE 01:03:37 33° ESE
CZ-4B R/B 1.7 01:02:44 54° SW 01:03:15 61° W 01:06:56 10° NNW
Cosmos 1340 4.2 01:06:42 22° WSW 01:08:14 29° WNW 01:11:36 10° N
Cosmos 1697 Rocket 3.4 01:05:05 10° NNW 01:10:37 51° NE 01:14:36 19° SE
Cosmos 841 Rocket 3.6 01:06:35 10° NNW 01:11:51 75° ENE 01:14:16 33° SE
CZ-4C R/B 4.2 01:12:12 28° W 01:12:12 28° W 01:15:02 10° NW
Cosmos 2082 Rocket 3.0 01:12:45 30° SE 01:14:28 37° ESE 01:19:38 10° NE
ALOS 2 3.1 01:14:55 38° SW 01:16:02 46° W 01:20:17 10° NNW
Cosmos 405 Rocket 2.6 01:16:23 59° SSW 01:17:04 84° WNW 01:20:52 10° N
Cosmos 1408 Rocket 4.0 01:18:18 36° SW 01:19:52 55° WNW 01:24:17 10° N
Cosmos 1908 4.0 01:16:50 10° N 01:20:32 43° ENE 01:21:33 35° ESE
Cosmos 2315 Rocket 4.4 01:14:45 10° N 01:21:00 56° ENE 01:24:32 26° SE
Cosmos 1833 Rocket 3.7 01:20:24 27° SE 01:22:09 33° ESE 01:27:07 10° NE
Lacrosse 5 rocket 3.0 01:19:16 10° NW 01:23:12 37° NNE 01:27:19 10° E
CZ-2C R/B 3.9 01:20:55 23° SE 01:24:12 51° ENE 01:29:45 10° N
ATLAS 3B R/B 4.4 01:19:34 10° W 01:26:28 35° NNW 01:33:07 10° NE
S3M 4.3 01:21:24 10° NNW 01:27:27 54° W 01:30:16 31° SSW
Helios 1A Rocket 2.9 01:23:55 10° NNE 01:28:00 81° WNW 01:29:02 49° SSW
Cosmos 2266 Rocket 4.1 01:28:12 33° S 01:31:16 76° E 01:37:42 10° NNE
NOSS 3-2 (A) 3.6 01:28:05 23° SW 01:32:12 84° NW 01:39:05 10° NE
Cosmos 1689 Rocket 3.9 01:33:59 24° W 01:33:59 24° W 01:36:34 10° NW
Meteor 1-24 Rocket 4.4 01:32:49 25° SW 01:36:07 51° WNW 01:41:52 10° N
Cosmos 1151 Rocket 3.1 01:33:02 10° N 01:37:19 69° ENE 01:38:37 42° SSE
Cosmos 1437 Rocket 3.2 01:34:03 10° N 01:37:56 53° ENE 01:39:02 39° SE
Cosmos 1656 3.6 01:33:47 10° NNW 01:39:32 84° WSW 01:42:17 32° SSE
Cosmos 1441 Rocket 3.9 01:39:47 38° SE 01:40:35 44° E 01:44:22 10° NNE
Cosmos 2151 3.9 01:40:34 31° SE 01:41:47 38° E 01:45:45 10° NNE
Timation 2 Rocket 4.2 01:39:42 29° SSW 01:43:35 89° NW 01:50:24 10° NNE
SL-23 DEB 4.0 01:43:06 10° W 01:46:45 57° N 01:49:50 10° ENE
CZ-4C R/B 2.4 01:43:22 23° SW 01:46:53 74° NW 01:53:10 10° NE
Cosmos 1743 Rocket 3.9 01:45:51 39° SW 01:47:15 59° WNW 01:51:41 10° N
Cosmos 836 Rocket 4.5 01:45:18 10° NNW 01:50:30 71° WSW 01:52:30 38° S
CZ-2C R/B 2.7 01:44:55 10° NNE 01:50:31 80° ESE 01:52:53 36° S
Meteor 2-20 4.5 01:48:08 33° SSW 01:51:07 78° W 01:57:20 10° N
SL-16 R/B 3.9 01:47:46 10° NNW 01:52:48 31° NE 01:57:48 10° ESE
Aureole 1 Rocket 3.4 01:51:17 10° NNW 01:55:43 81° ENE 01:58:47 27° SSE
H-2A R/B 4.2 01:54:26 10° NNW 01:57:28 22° WNW 01:59:11 17° W
Cosmos 1726 3.8 01:55:58 10° NNE 01:59:12 28° ENE 02:01:01 19° ESE
Cosmos 1486 Rocket 4.5 01:57:26 27° SW 02:00:07 53° WNW 02:05:15 10° NNE
ISS -2.7 01:59:44 10° WNW 02:02:58 56° N 02:06:12 10° E
Cosmos 1500 Rocket 3.8 02:03:19 38° SW 02:04:40 56° WNW 02:08:56 10° N
Cosmos 2322 Rocket 3.5 01:59:33 10° NNW 02:04:49 38° NE 02:10:01 10° ESE
Cosmos 1674 2.5 02:05:54 55° S 02:06:39 88° ESE 02:10:27 10° N
In-Cosmos 22 4.5 02:04:07 31° SW 02:06:46 60° WNW 02:12:25 10° N
Cosmos 1763 Rocket 4.4 02:08:38 10° NW 02:13:21 33° WSW 02:14:47 28° SW
Cosmos 540 Rocket 3.4 02:10:16 10° NNW 02:15:29 84° WSW 02:18:07 30° SSE
Iridium 2 3.8 02:19:42 43° SSE 02:20:47 69° E 02:24:35 10° N
Lacrosse 5 1.9 02:17:01 10° WNW 02:21:58 56° SW 02:24:36 26° SSE
Cosmos 405 3.0 02:21:25 10° NNW 02:25:00 64° W 02:25:40 51° SSW
Cosmos 724 4.3 02:25:11 28° SW 02:28:24 85° NW 02:34:22 10° NE
PSLV R/B 4.3 02:25:26 10° NNE 02:29:56 49° E 02:32:01 28° SSE
SL-14 R/B 4.0 02:29:22 30° SE 02:30:48 44° E 02:34:29 10° NNE
Cosmos 1328 3.7 02:30:58 42° SSW 02:32:13 78° W 02:36:14 10° N
CENTAUR R/B 2.7 02:29:14 29° SSW 02:32:30 62° ESE 02:39:23 10° NE
Cosmos 1980 Rocket 2.2 02:28:53 10° NNW 02:34:29 67° WSW 02:37:43 26° S
Cosmos 2360 Rocket 4.2 02:30:00 10° NNW 02:34:48 28° NE 02:39:35 10° ESE
Cosmos 371 Rocket 3.4 02:30:08 10° NNW 02:35:01 74° ENE 02:38:33 18° SSE
Meteor 1-11 4.5 02:31:48 26° S 02:35:05 65° E 02:40:52 10° NNE
NOSS 3-2 (C) 4.4 02:33:18 11° WSW 02:39:18 49° NW 02:46:03 10° NE
Cosmos 1703 4.4 02:41:01 22° SE 02:43:00 37° E 02:46:40 10° NNE
Cosmos 1867 4.3 02:40:48 17° WSW 02:44:53 49° NW 02:50:14 10° NNE
Cosmos 1271 Rocket 3.8 02:43:02 10° N 02:46:40 40° ENE 02:49:26 15° SE
Meteor 2-10 4.4 02:44:34 10° N 02:49:45 62° ENE 02:54:23 14° SSE
Cosmos 2344 4.0 02:47:11 17° SW 02:53:38 72° NW 03:03:10 10° NE
Cosmos 1697 Rocket 3.6 02:49:28 10° NW 02:54:22 31° WSW 02:56:18 25° SW
BREEZE-M DEB (TANK) 3.2 02:52:40 10° W 02:55:30 57° SSW 03:03:51 10° ESE
Cosmos 1805 Rocket 3.8 02:53:51 31° SW 02:55:48 60° WNW 03:00:14 10° N
Cosmos 2242 Rocket 3.5 02:51:36 10° NNW 02:56:02 76° W 02:58:17 28° S
ATLAS CENTAUR R/B 4.1 02:53:07 10° NNW 02:57:12 26° NNE 03:01:04 10° E
Cosmos 2082 Rocket 3.0 02:54:35 18° WSW 02:58:29 43° NW 03:03:56 10° NNE
BREEZE-M DEB (TANK) 3.7 03:00:43 20° SSE 03:01:48 24° SE 03:06:56 10° ENE
Abrixas 2.4 03:01:15 42° WSW 03:02:08 72° SSE 03:05:13 10° E
Cosmos 968 Rocket 3.7 02:59:28 25° S 03:02:24 63° ESE 03:07:31 10° NNE
Lacrosse 5 rocket 1.4 02:58:27 10° WNW 03:02:46 69° SW 03:07:14 10° SE
Cosmos 1633 Rocket 3.0 03:01:19 29° SSW 03:03:32 80° W 03:08:00 10° N
CZ-2C R/B 4.3 03:01:59 22° SW 03:04:18 29° W 03:09:14 10° NNW
ERS-2 2.5 03:00:56 10° NNE 03:04:37 60° ESE 03:06:26 27° S
Cosmos 1833 Rocket 3.4 03:02:05 19° WSW 03:05:54 47° NW 03:11:22 10° NNE
Cosmos 1707 Rocket 4.3 03:02:02 10° NNW 03:06:03 36° W 03:07:40 27° SW
Cosmos 2058 3.5 03:05:51 27° SW 03:07:40 44° WNW 03:11:41 10° N
Cosmos 1437 3.2 03:07:15 35° SW 03:08:19 51° WNW 03:11:36 10° N
Cosmos 1300 3.6 03:05:35 10° NNW 03:09:05 34° W 03:10:14 28° SW
Cosmos 1386 Rocket 4.5 03:05:04 21° S 03:09:27 83° E 03:15:36 10° N
COS B Rocket 4.1 03:08:53 10° NW 03:10:12 17° WNW 03:10:12 17° WNW
ATLAS 5 CENTAUR R/B 3.7 03:09:29 12° SSE 03:12:37 21° ESE 03:16:29 10° ENE
Cosmos 1666 Rocket 3.8 03:10:54 27° SW 03:13:00 53° WNW 03:17:16 10° N
Meteor 1-4 Rocket 2.6 03:10:11 10° N 03:13:58 84° E 03:16:28 20° SSE
ASTEX 1 4.4 03:11:18 10° N 03:15:47 35° WNW 03:18:30 20° SW
Cosmos 1745 Rocket 4.2 03:15:28 22° SSW 03:19:44 65° WNW 03:26:04 10° N
SL-16 R/B 3.6 03:13:59 10° SE 03:19:54 46° ENE 03:25:51 10° N
Nadezhda 1 Rocket 4.2 03:15:58 10° NNW 03:21:59 55° W 03:26:14 19° SSW
Cosmos 1538 Rocket 4.4 03:18:11 10° NNW 03:23:09 45° WSW 03:26:30 20° SSW
Resurs 1-4 Rocket 4.0 03:19:15 10° NE 03:23:31 24° E 03:27:46 10° SE
Cosmos 1470 Rocket 3.6 03:20:44 22° S 03:23:36 84° E 03:28:03 10° N
IRS-P3 4.1 03:20:01 10° NNE 03:25:23 84° WNW 03:29:11 20° SSW
Cosmos 923 Rocket 4.0 03:21:36 10° NNW 03:26:55 86° WSW 03:32:10 10° SSE
Cosmos 1933 Rocket 3.5 03:25:15 22° S 03:28:06 90° SE 03:32:33 10° N
Cosmos 1709 Rocket 4.1 03:25:53 15° S 03:31:16 77° E 03:37:30 10° NNE
Cosmos 1726 3.5 03:31:31 10° NW 03:34:29 23° W 03:35:41 19° WSW
Cosmos 1680 Rocket 3.5 03:30:41 10° NNW 03:35:57 89° ENE 03:41:10 10° SSE
Cosmos 1455 2.1 03:32:37 10° NNW 03:36:25 69° W 03:39:06 18° S
CZ-4C R/B 4.2 03:31:33 10° WNW 03:36:31 27° NNW 03:42:03 10° NE
SL-16 R/B 2.3 03:31:41 10° NW 03:37:15 56° WSW 03:42:46 10° S
ISS -3.1 03:36:15 10° WNW 03:39:25 47° SSW 03:42:34 10° SE
SL-08 R/B 3.7 03:36:35 17° S 03:40:04 50° W 03:44:53 10° NNW
Cosmos 1777 Rocket 4.1 03:37:19 18° SSW 03:41:18 83° ESE 03:46:37 10° NNE
USA 215 3.4 03:34:49 10° ENE 03:41:20 66° SE 03:46:41 16° SW
Okean 1-7 4.4 03:37:13 10° N 03:41:22 39° ENE 03:45:28 10° SE
Cosmos 773 Rocket 4.1 03:36:33 10° NNW 03:41:34 54° WSW 03:46:23 11° S
Sich 1 4.2 03:40:29 18° SW 03:43:06 32° WNW 03:47:06 10° N
CBERS-1 4.0 03:40:50 10° NNE 03:45:58 78° WNW 03:50:05 16° SSW
Cosmos 2322 Rocket 2.6 03:43:39 10° NW 03:48:56 42° WSW 03:54:10 10° S
ARIANE 5 R/B 3.1 03:48:52 10° NNE 03:53:54 55° E 03:58:51 10° S
Cosmos 2219 Rocket 4.3 03:52:04 10° NNW 03:56:59 30° NE 04:01:51 10° ESE
IRS-1D 4.2 03:52:08 10° NNE 03:57:24 54° E 04:02:35 10° S
GENESIS II 4.2 03:54:32 10° NW 03:58:42 73° SW 04:02:44 10° SSE
Cosmos 1862 Rocket 4.3 03:55:10 10° NNW 03:59:20 38° W 04:02:40 15° SSW
Cosmos 1626 2.3 03:56:42 17° SSW 03:59:26 59° WNW 04:03:10 10° N
SL-23 DEB 3.4 03:56:28 10° WNW 03:59:36 84° NNE 04:03:19 10° ESE
Okean O Rocket 3.9 03:56:38 10° NE 03:59:58 20° E 04:03:15 10° SE
ADEOS 3.6 03:57:29 10° NNE 04:02:44 78° WNW 04:07:33 12° SSW
Lacrosse 5 3.7 04:02:26 10° W 04:03:41 11° WSW 04:03:41 11° WSW
UNKNOWN OBJECT B 4.3 04:02:55 10° NNE 04:06:22 31° E 04:09:51 10° SSE
Cosmos 1869 4.0 04:04:34 10° NNW 04:08:14 36° W 04:11:24 13° SSW
USA 161 2.1 04:09:46 19° SW 04:10:52 27° W 04:13:00 10° NW
CZ-2D R/B 2.6 04:08:10 10° NNE 04:13:22 58° E 04:18:34 10° S
USA 129 1.0 04:13:09 16° SSE 04:14:03 59° ENE 04:15:29 10° N
CRYOSAT 2 4.5 04:11:01 10° N 04:15:56 80° E 04:20:48 10° S
Cosmos 1980 Rocket 4.1 04:16:18 10° W 04:17:23 11° W 04:18:29 10° WSW
Cosmos 2360 Rocket 2.2 04:13:40 10° NNW 04:19:15 64° WSW 04:24:49 10° SSE
Cosmos 2221 Rocket 3.8 04:16:12 10° NNW 04:20:38 58° W 04:25:05 10° S
MTI 3.8 04:18:48 10° SSE 04:22:10 84° WSW 04:25:33 10° NNW
Cosmos 1271 Rocket 4.4 04:19:54 10° NW 04:22:24 17° W 04:24:37 11° SW
Cosmos 2181 Rocket 4.5 04:17:31 10° NNW 04:23:15 42° W 04:29:01 10° SSW
CENTAUR R/B 3.6 04:17:25 10° WSW 04:23:33 43° NNW 04:30:26 10° NE
Cosmos 304 Rocket 4.4 04:23:06 10° NW 04:27:33 37° WSW 04:31:59 10° S
BREEZE-M DEB (TANK) 1.8 04:25:00 10° WNW 04:28:47 47° SSW 04:30:57 10° SE
Cosmos 1869 Rocket 3.6 04:24:36 10° SSW 04:29:00 80° W 04:33:29 10° N
Meteor 1-26 Rocket 4.2 04:26:02 10° NNW 04:31:36 75° W 04:37:06 10° S
Cosmos 2292 Rocket 4.0 04:30:28 11° SW 04:33:18 33° WNW 04:36:51 10° N
EO 1 Del DPAF 3.9 04:30:43 10° SSW 04:34:22 37° W 04:38:03 10° NNW
Cosmos 389 Rocket 3.3 04:30:53 10° N 04:34:32 57° ENE 04:38:10 10° SSE
Cosmos 2322 4.0 04:30:48 10° NW 04:36:19 49° WSW 04:41:48 10° S
ATLAS CENTAUR R/B 1.6 04:32:04 10° NW 04:36:52 75° SW 04:41:15 10° SSE
SME Rocket 3.6 04:31:25 10° SSE 04:37:31 85° WSW 04:41:50 10° NNW
Nadezhda 3 Rocket 4.4 04:31:40 10° N 04:37:50 70° ENE 04:43:58 10° SSE
ERS-2 4.4 04:35:59 10° NNW 04:38:00 14° WNW 04:40:00 10° W
Abrixas 2.5 04:35:08 10° W 04:38:14 79° S 04:41:19 10° ESE
Cosmos 2219 3.7 04:33:42 10° S 04:39:18 59° ESE 04:44:59 10° NE
Cosmos 1933 4.2 04:36:31 10° NNW 04:40:07 31° W 04:43:41 10° SSW
Lacrosse 5 rocket 3.2 04:39:13 10° W 04:41:26 14° WSW 04:43:40 10° SSW
CZ-2D R/B 4.0 04:39:12 10° NNE 04:43:23 61° E 04:47:24 10° S
H-2A R/B 4.2 04:37:24 10° SW 04:43:41 31° SSE 05:10:53 10° ESE
Cosmos 292 Rocket 3.8 04:41:10 10° NNW 04:46:02 88° WSW 04:50:49 10° SSE
Cosmos 1346 4.3 04:43:55 10° SW 04:46:37 28° WNW 04:49:21 10° N
USA 229 DEB 4.2 04:41:59 10° SSW 04:48:46 59° ESE 04:55:39 10° NE
USA 229 4.2 04:42:06 10° SSW 04:48:53 59° ESE 04:55:45 10° NE
